METEOR 2-17 DEB, 35372

Orbit data source: Space-Track

METEOR 2-17 DEB, 35372 is space debris in LEO originally from a launch on Sat, 30 Jan 1988 UTC launched from the Plesetsk Missile And Space Complex (PKMTR). Debris objects in space refer to the collection of defunct objects orbiting the Earth. Examples of debris include non-operational satellites, rocket bodies, and fragments generated from explosions, collisions, or faulty payload assembly.

Loading next visibility...
Identifier
35372, 1988-005AG
Orbit
LEO
Country
Flag of CISCIS
Related business
Manufacturer
Unknown
Mission
Spacecraft
Bus & Motor
Unknown
Mass
Unknown
Launch date (UTC)
1988-01-30 (38 years ago)
Launch vehicle
Unknown
Launch site
Plesetsk Missile And Space Complex (PKMTR)
Object type
Payload
Rocket body
Debris
Shape & HBR
Unknown shape, 0.1 m
Radar Cross Section
Small (<0.1 m²)

Expand to show TLE details & history
Last TLE update: 1 week ago

TLE from 1 week ago
0 METEOR 2-17 DEB
1 35372U 88005AG  25297.74364278  .00003419  00000-0  22808-2 0  9996
2 35372  82.5245 110.8143 0018665 200.6930 176.1055 14.00746043631039
Epoch: 2025-10-24T17:50Z
TLE epoch observation values (Epoch: 2025-10-24T17:50:50.736Z)
Latitude
16.6503°
Longitude
171.95599°
Altitude
907.043 km
Speed
7.393 km/s
True Right ascension
07h 32m 12s
True Declination
16° 33' 29"
Sunlit
Object was in daylight at epoch
Visualization orbit readout
Latitude
Unknown
Longitude
Unknown
Altitude
Unknown
Speed
Unknown
Apparent Right ascension
Unknown
Apparent Declination
Unknown
Sunlit
N/A
Visualization observer readout
Local Sidereal Time
15:02:57
Azimuth
Unknown
Elevation
Unknown
Doppler factor
Unknown
Orbital elements
Apogee altitude
901.906 km
Perigee altitude
874.78 km
Semi-major axis
7,266.48 km
Eccentricity
0.00187
Inclination
82.5245°
RAAN
110.8143°
Arg. of periapsis
200.693°
True anomaly
176.11999°
Mean anomaly
176.1055°
Eccentric anomaly
176.11275°
Mean motion
3.50394 °/min
Orbital period
102.74 mins
BSTAR
0.0022808
Loading maneuver chart data...
Computing Atmospheric mass density...
Loading historical data...
Loading historical data...
Loading historical data...
Loading historical data...
Loading historical data...
Loading historical data...
Loading historical data...

Documentation

Showing up to 5 results
|